TimeEST,TemperatureF,Dew PointF,Humidity,Sea Level PressureIn,VisibilityMPH,Wind Direction,Wind SpeedMPH,Gust SpeedMPH,PrecipitationIn,Events,Conditions,WindDirDegrees,DateUTC
12:15 AM,27.3,21.9,80,30.38,5.0,East,3.5,-,N/A,,Haze,100,2013-11-20 05:15:00
12:35 AM,27.1,21.9,81,30.37,5.0,ESE,4.6,-,N/A,,Haze,110,2013-11-20 05:35:00
12:54 AM,28.4,22.8,80,30.37,7.0,ESE,6.9,-,N/A,,Clear,120,2013-11-20 05:54:00
1:15 AM,28.4,22.8,80,30.38,10.0,SE,3.5,-,N/A,,Clear,130,2013-11-20 06:15:00
1:35 AM,28.2,23.0,81,30.38,10.0,ESE,4.6,-,N/A,,Clear,120,2013-11-20 06:35:00
1:55 AM,27.9,23.0,82,30.37,10.0,ESE,3.5,-,N/A,,Clear,120,2013-11-20 06:55:00
2:15 AM,27.5,23.0,83,30.38,10.0,ESE,3.5,-,N/A,,Clear,120,2013-11-20 07:15:00
2:34 AM,27.9,23.4,83,30.38,10.0,ESE,3.5,-,N/A,,Clear,120,2013-11-20 07:34:00
2:55 AM,27.5,23.4,84,30.39,10.0,ESE,4.6,-,N/A,,Clear,120,2013-11-20 07:55:00
3:15 AM,27.7,23.4,84,30.39,10.0,ESE,3.5,-,N/A,,Clear,120,2013-11-20 08:15:00
3:34 AM,27.5,23.2,84,30.39,10.0,ESE,3.5,-,N/A,,Clear,110,2013-11-20 08:34:00
3:55 AM,27.1,23.4,86,30.39,10.0,ESE,3.5,-,N/A,,Clear,120,2013-11-20 08:55:00
4:15 AM,27.0,23.2,86,30.39,10.0,Calm,Calm,-,N/A,,Clear,0,2013-11-20 09:15:00
4:34 AM,26.2,22.6,86,30.39,10.0,ESE,3.5,-,N/A,,Clear,120,2013-11-20 09:34:00
4:55 AM,26.8,23.9,89,30.38,10.0,ESE,4.6,-,N/A,,Clear,120,2013-11-20 09:55:00
5:15 AM,27.3,23.7,86,30.38,10.0,Calm,Calm,-,N/A,,Clear,0,2013-11-20 10:15:00
5:34 AM,27.3,23.5,86,30.38,10.0,SE,4.6,-,N/A,,Clear,140,2013-11-20 10:34:00
5:55 AM,27.1,23.4,86,30.39,10.0,Calm,Calm,-,N/A,,Clear,0,2013-11-20 10:55:00
6:15 AM,27.3,23.5,86,30.39,10.0,Calm,Calm,-,N/A,,Clear,0,2013-11-20 11:15:00
6:34 AM,26.4,23.2,88,30.39,10.0,Calm,Calm,-,N/A,,Clear,0,2013-11-20 11:34:00
6:55 AM,25.5,22.6,89,30.38,10.0,ESE,3.5,-,N/A,,Clear,110,2013-11-20 11:55:00
7:15 AM,26.6,23.7,89,30.39,10.0,Calm,Calm,-,N/A,,Clear,0,2013-11-20 12:15:00
7:35 AM,27.1,24.3,89,30.38,10.0,ESE,5.8,-,N/A,,Clear,120,2013-11-20 12:35:00
7:55 AM,28.0,25.0,88,30.39,10.0,SE,4.6,-,N/A,,Clear,130,2013-11-20 12:55:00
8:15 AM,28.4,25.2,88,30.39,10.0,SE,6.9,-,N/A,,Clear,130,2013-11-20 13:15:00
8:34 AM,29.3,25.7,86,30.39,10.0,SE,6.9,-,N/A,,Clear,130,2013-11-20 13:34:00
8:55 AM,29.7,25.7,85,30.38,10.0,SE,4.6,-,N/A,,Clear,130,2013-11-20 13:55:00
9:15 AM,30.4,26.4,85,30.38,10.0,SE,6.9,-,N/A,,Clear,140,2013-11-20 14:15:00
9:35 AM,31.8,27.3,83,30.38,10.0,SE,5.8,-,N/A,,Clear,130,2013-11-20 14:35:00
9:55 AM,32.0,27.9,85,30.38,10.0,SE,9.2,-,N/A,,Clear,140,2013-11-20 14:55:00
10:15 AM,32.9,28.0,82,30.38,10.0,SE,11.5,16.1,N/A,,Clear,130,2013-11-20 15:15:00
10:35 AM,33.4,28.6,82,30.38,10.0,SE,11.5,-,N/A,,Clear,130,2013-11-20 15:35:00
10:55 AM,34.3,29.1,81,30.37,10.0,ESE,12.7,17.3,N/A,,Clear,120,2013-11-20 15:55:00
11:14 AM,35.1,29.1,79,30.35,10.0,SE,10.4,16.1,N/A,,Clear,130,2013-11-20 16:14:00
11:35 AM,36.3,29.7,77,30.34,10.0,SE,12.7,17.3,N/A,,Clear,130,2013-11-20 16:35:00
11:55 AM,36.5,29.7,76,30.33,10.0,SE,11.5,17.3,N/A,,Clear,130,2013-11-20 16:55:00
12:14 PM,37.6,30.4,75,30.33,10.0,SE,11.5,16.1,N/A,,Clear,140,2013-11-20 17:14:00
12:35 PM,38.8,30.2,71,30.32,10.0,SE,12.7,17.3,N/A,,Clear,130,2013-11-20 17:35:00
12:55 PM,39.0,30.2,71,30.31,10.0,SE,8.1,18.4,N/A,,Clear,130,2013-11-20 17:55:00
1:15 PM,39.2,30.0,70,30.30,10.0,ESE,9.2,17.3,N/A,,Clear,120,2013-11-20 18:15:00
1:35 PM,39.9,30.0,68,30.30,10.0,ESE,9.2,-,N/A,,Clear,120,2013-11-20 18:35:00
1:55 PM,40.8,30.4,66,30.29,10.0,ESE,12.7,16.1,N/A,,Clear,120,2013-11-20 18:55:00
2:15 PM,41.2,30.4,65,30.28,10.0,ESE,9.2,-,N/A,,Clear,120,2013-11-20 19:15:00
2:35 PM,42.6,28.8,58,30.27,10.0,SE,12.7,17.3,N/A,,Clear,130,2013-11-20 19:35:00
2:55 PM,43.7,28.0,54,30.26,10.0,ESE,10.4,-,N/A,,Clear,120,2013-11-20 19:55:00
3:15 PM,43.2,27.1,53,30.26,10.0,SE,11.5,-,N/A,,Clear,130,2013-11-20 20:15:00
3:35 PM,44.1,27.3,52,30.24,10.0,ESE,9.2,-,N/A,,Clear,120,2013-11-20 20:35:00
3:55 PM,43.0,25.3,50,30.23,10.0,ESE,10.4,-,N/A,,Clear,110,2013-11-20 20:55:00
4:15 PM,42.3,25.0,50,30.23,10.0,SE,8.1,-,N/A,,Clear,130,2013-11-20 21:15:00
4:35 PM,41.2,25.2,53,30.23,10.0,ESE,6.9,-,N/A,,Clear,110,2013-11-20 21:35:00
4:55 PM,40.3,25.2,55,30.23,10.0,ESE,5.8,-,N/A,,Clear,110,2013-11-20 21:55:00
5:15 PM,37.6,25.2,61,30.23,10.0,East,5.8,-,N/A,,Clear,90,2013-11-20 22:15:00
5:35 PM,37.9,25.5,61,30.21,10.0,East,6.9,-,N/A,,Clear,80,2013-11-20 22:35:00
5:55 PM,37.4,25.9,63,30.21,10.0,East,5.8,-,N/A,,Clear,90,2013-11-20 22:55:00
6:15 PM,37.4,26.1,64,30.21,10.0,East,6.9,-,N/A,,Clear,90,2013-11-20 23:15:00
6:35 PM,37.9,25.3,60,30.21,10.0,East,6.9,-,N/A,,Clear,100,2013-11-20 23:35:00
6:55 PM,37.8,24.8,60,30.21,10.0,East,8.1,-,N/A,,Clear,100,2013-11-20 23:55:00
7:15 PM,38.8,23.9,55,30.21,10.0,ESE,9.2,-,N/A,,Clear,110,2013-11-21 00:15:00
7:35 PM,38.5,23.9,56,30.22,10.0,ESE,5.8,-,N/A,,Clear,120,2013-11-21 00:35:00
7:55 PM,37.9,24.1,57,30.23,10.0,SE,8.1,-,N/A,,Clear,140,2013-11-21 00:55:00
8:15 PM,36.9,25.3,63,30.23,10.0,SE,4.6,-,N/A,,Clear,130,2013-11-21 01:15:00
8:35 PM,36.0,25.7,66,30.22,10.0,ESE,5.8,-,N/A,,Clear,120,2013-11-21 01:35:00
8:54 PM,36.3,25.7,65,30.22,10.0,ESE,4.6,-,N/A,,Clear,110,2013-11-21 01:54:00
9:15 PM,36.5,25.7,65,30.22,10.0,ESE,3.5,-,N/A,,Clear,120,2013-11-21 02:15:00
9:34 PM,35.4,25.7,68,30.21,10.0,East,3.5,-,N/A,,Clear,100,2013-11-21 02:34:00
9:55 PM,34.5,25.7,70,30.20,10.0,East,4.6,-,N/A,,Clear,80,2013-11-21 02:55:00
10:15 PM,34.9,25.7,69,30.21,10.0,East,3.5,-,N/A,,Clear,90,2013-11-21 03:15:00
10:34 PM,34.7,26.2,71,30.20,10.0,East,4.6,-,N/A,,Scattered Clouds,80,2013-11-21 03:34:00
10:55 PM,35.1,26.6,71,30.21,10.0,Calm,Calm,-,N/A,,Scattered Clouds,0,2013-11-21 03:55:00
11:15 PM,35.8,26.6,69,30.21,10.0,Calm,Calm,-,N/A,,Mostly Cloudy,0,2013-11-21 04:15:00
11:34 PM,36.1,26.6,68,30.21,10.0,SE,3.5,-,N/A,,Overcast,130,2013-11-21 04:34:00
11:55 PM,36.1,26.8,69,30.22,10.0,Calm,Calm,-,N/A,,Overcast,0,2013-11-21 04:55:00